Weather History for KGGI - March, 2014

Change the Weather History Date:

Saturday, March 15, 2014

  Actual Average (KMIW) Record (KMIW)
Temperature  
Mean Temperature 36 °F 36 °F  
Max Temperature 45 °F 46 °F 79 °F (2012)
Min Temperature 28 °F 26 °F 6 °F (1997)
Degree Days  
Heating Degree Days 28 29  
Month to date heating degree days 491  
Since 1 July heating degree days 5894  
Cooling Degree Days 0 0  
Month to date cooling degree days 0  
Year to date cooling degree days 0  
Moisture  
Dew Point 28 °F    
Average Humidity 77    
Maximum Humidity 95    
Minimum Humidity 54    
Precipitation  
Precipitation 0.00 in 0.06 in 0.10 in (2004)
Month to date precipitation 0.78  
Sea Level Pressure  
Sea Level Pressure 30.05 in    
Wind  
Wind Speed 8 mph (NE)    
Max Wind Speed 24 mph    
Max Gust Speed 32 mph    
Visibility 9 miles    
Events Rain , Snow    
T = Trace of Precipitation, MM = Missing Value Source: NWS Daily Summary

Daily Weather History Graph

Daily Weather History Graph

Search for Another Location

Airport or City:

Trip Planner

Search our weather history database for the weather conditions in past years. The results will help you decide how hot, cold, wet, or windy it might be!

Date:

Astronomy

Mar. 15, 2014 Rise Set
Actual Time 7:22 AM CDT 7:17 PM CDT
Civil Twilight 6:55 AM CDT 7:45 PM CDT
Nautical Twilight 6:22 AM CDT 8:17 PM CDT
Astronomical Twilight 5:50 AM CDT 8:50 PM CDT
Moon 6:37 PM CDT (3/15) 6:35 AM CDT (3/15)
Length of Visible Light 12h 50m
Length of Day
11h 54m
Waxing Gibbous, 99% of the Moon is Illuminated
Mar 15
Waxing Gibbous
Mar 16
Full
Mar 23
Last Quarter
Mar 30
New
Apr 7
First Quarter

Hourly Weather History & Observations

Time (CDT) Temp. Windchill Dew Point Humidity Pressure Visibility Wind Dir Wind Speed Gust Speed Precip Events Conditions
12:15 AM 36.0 °F - 30.9 °F 82% 29.97 in 10.0 mi Calm Calm - N/A   Clear
12:35 AM 34.7 °F 31.8 °F 30.2 °F 84% 29.97 in 10.0 mi NW 3.5 mph - N/A   Clear
12:55 AM 34.2 °F 30.0 °F 29.7 °F 84% 29.97 in 10.0 mi NW 4.6 mph - N/A   Clear
1:15 AM 32.9 °F 29.8 °F 28.9 °F 85% 29.98 in 10.0 mi NW 3.5 mph - N/A   Clear
1:35 AM 33.1 °F - 29.3 °F 86% 29.98 in 10.0 mi Calm Calm - N/A   Clear
1:55 AM 33.1 °F 30.0 °F 29.3 °F 86% 29.98 in 10.0 mi NW 3.5 mph - N/A   Clear
2:15 AM 32.9 °F - 29.8 °F 88% 29.98 in 10.0 mi Calm Calm - N/A   Clear
2:35 AM 33.1 °F - 29.8 °F 88% 29.99 in 10.0 mi Calm Calm - N/A   Clear
2:55 AM 32.7 °F 29.6 °F 28.9 °F 86% 29.99 in 10.0 mi North 3.5 mph - N/A   Clear
3:15 AM 30.0 °F 25.2 °F 27.7 °F 91% 29.98 in 10.0 mi NNE 4.6 mph - N/A   Clear
3:35 AM 31.8 °F - 28.4 °F 87% 29.98 in 10.0 mi Calm Calm - N/A   Clear
3:55 AM 30.4 °F - 27.9 °F 90% 29.98 in 10.0 mi Calm Calm - N/A   Clear
4:15 AM 30.4 °F - 27.5 °F 89% 29.98 in 10.0 mi Calm Calm - N/A   Scattered Clouds
4:35 AM 30.0 °F 25.2 °F 27.5 °F 90% 29.98 in 10.0 mi NNE 4.6 mph - N/A   Mostly Cloudy
4:55 AM 32.0 °F 26.4 °F 27.1 °F 82% 29.98 in 10.0 mi NNE 5.8 mph - N/A   Mostly Cloudy
5:15 AM 32.0 °F 27.5 °F 27.5 °F 83% 29.98 in 10.0 mi NNE 4.6 mph - N/A   Scattered Clouds
5:35 AM 31.8 °F 27.3 °F 26.8 °F 82% 29.99 in 10.0 mi NE 4.6 mph - N/A   Scattered Clouds
5:55 AM 31.5 °F 26.8 °F 27.0 °F 83% 29.99 in 10.0 mi ENE 4.6 mph - N/A   Scattered Clouds
6:15 AM 30.6 °F 27.1 °F 26.8 °F 86% 29.99 in 10.0 mi ENE 3.5 mph - N/A   Scattered Clouds
6:35 AM 29.8 °F 24.9 °F 27.1 °F 90% 29.99 in 10.0 mi East 4.6 mph - N/A   Scattered Clouds
6:55 AM 28.8 °F 25.0 °F 26.1 °F 90% 29.99 in 10.0 mi ENE 3.5 mph - N/A   Mostly Cloudy
7:15 AM 29.1 °F 22.1 °F 26.4 °F 90% 29.99 in 10.0 mi East 6.9 mph - N/A   Scattered Clouds
7:35 AM 30.0 °F 23.2 °F 26.6 °F 87% 30.00 in 10.0 mi East 6.9 mph - N/A   Clear
7:55 AM 30.2 °F 23.4 °F 27.3 °F 89% 30.01 in 10.0 mi ENE 6.9 mph - N/A   Clear
8:15 AM 30.6 °F 23.1 °F 27.5 °F 88% 30.01 in 10.0 mi East 8.1 mph - N/A   Clear
8:35 AM 31.1 °F 23.1 °F 27.1 °F 85% 30.01 in 10.0 mi ENE 9.2 mph - N/A   Clear
8:55 AM 31.6 °F 23.1 °F 26.6 °F 82% 30.02 in 10.0 mi ENE 10.4 mph - N/A   Clear
9:15 AM 31.8 °F 22.8 °F 26.6 °F 81% 30.03 in 10.0 mi ENE 11.5 mph - N/A   Mostly Cloudy
9:35 AM 32.0 °F 23.0 °F 27.0 °F 82% 30.04 in 10.0 mi ENE 11.5 mph - N/A   Mostly Cloudy
9:55 AM 32.0 °F 22.5 °F 27.0 °F 82% 30.04 in 10.0 mi ENE 12.7 mph - N/A   Overcast
10:15 AM 32.9 °F 23.7 °F 26.8 °F 78% 30.05 in 10.0 mi ENE 12.7 mph - N/A   Mostly Cloudy
10:35 AM 34.7 °F 25.5 °F 27.0 °F 73% 30.05 in 10.0 mi ENE 13.8 mph - N/A   Scattered Clouds
10:55 AM 34.9 °F 25.3 °F 24.8 °F 67% 30.06 in 10.0 mi ENE 15.0 mph - N/A   Scattered Clouds
11:15 AM 36.1 °F 26.9 °F 25.9 °F 66% 30.06 in 10.0 mi ENE 15.0 mph - N/A   Scattered Clouds
11:35 AM 36.7 °F 28.0 °F 24.1 °F 60% 30.06 in 10.0 mi ENE 13.8 mph - N/A   Scattered Clouds
11:55 AM 37.8 °F 29.4 °F 24.1 °F 58% 30.06 in 10.0 mi East 13.8 mph - N/A   Scattered Clouds
12:15 PM 38.8 °F 30.8 °F 26.2 °F 61% 30.06 in 10.0 mi ENE 13.8 mph - N/A   Scattered Clouds
12:35 PM 39.2 °F 30.8 °F 25.0 °F 57% 30.06 in 10.0 mi East 15.0 mph - N/A   Mostly Cloudy
1:15 PM 41.4 °F 32.7 °F 27.0 °F 57% 30.05 in 10.0 mi ENE 18.4 mph - N/A   Scattered Clouds
1:35 PM 42.1 °F 33.6 °F 27.1 °F 55% 30.04 in 10.0 mi ENE 18.4 mph 21.9 mph N/A   Mostly Cloudy
1:55 PM 43.5 °F 35.5 °F 28.8 °F 56% 30.03 in 10.0 mi ENE 18.4 mph - N/A   Mostly Cloudy
2:15 PM 42.8 °F 34.5 °F 28.9 °F 58% 30.02 in 10.0 mi ENE 18.4 mph - N/A   Scattered Clouds
2:35 PM 43.3 °F 35.5 °F 29.5 °F 58% 30.03 in 10.0 mi ENE 17.3 mph 21.9 mph N/A   Mostly Cloudy
2:55 PM 44.6 °F 37.2 °F 30.4 °F 57% 30.03 in 10.0 mi NE 17.3 mph - N/A   Mostly Cloudy
3:15 PM 45.3 °F 38.1 °F 30.7 °F 57% 30.03 in 10.0 mi ENE 17.3 mph - N/A   Scattered Clouds
3:35 PM 45.5 °F 38.6 °F 30.9 °F 57% 30.02 in 10.0 mi ENE 16.1 mph - N/A   Clear
3:55 PM 45.7 °F 38.3 °F 31.6 °F 58% 30.02 in 10.0 mi NE 18.4 mph - N/A   Clear
4:15 PM 45.0 °F 37.6 °F 30.7 °F 57% 30.03 in 10.0 mi ENE 17.3 mph - N/A   Clear
4:35 PM 44.6 °F 36.9 °F 29.5 °F 55% 30.03 in 10.0 mi NE 18.4 mph 26.5 mph N/A   Clear
4:55 PM 44.4 °F 36.4 °F 28.8 °F 54% 30.04 in 10.0 mi NE 19.6 mph 25.3 mph N/A   Scattered Clouds
5:15 PM 44.1 °F 36.2 °F 28.9 °F 55% 30.05 in 10.0 mi ENE 18.4 mph 25.3 mph N/A   Overcast
5:35 PM 41.9 °F 33.1 °F 28.0 °F 58% 30.06 in 10.0 mi NE 19.6 mph 25.3 mph N/A   Scattered Clouds
5:55 PM 41.0 °F 32.2 °F 28.4 °F 61% 30.07 in 10.0 mi NE 18.4 mph 26.5 mph N/A   Clear
6:15 PM 38.7 °F 28.8 °F 29.1 °F 69% 30.08 in 10.0 mi NNE 19.6 mph 26.5 mph N/A   Clear
6:35 PM 36.7 °F 26.0 °F 27.3 °F 69% 30.09 in 10.0 mi NNE 20.7 mph 26.5 mph N/A   Scattered Clouds
6:55 PM 35.6 °F 23.7 °F 27.1 °F 71% 30.09 in 10.0 mi NE 24.2 mph 32.2 mph N/A   Scattered Clouds
7:15 PM 35.1 °F 24.1 °F 27.0 °F 72% 30.10 in 10.0 mi NE 19.6 mph 26.5 mph N/A   Mostly Cloudy
7:35 PM 33.4 °F 22.3 °F 28.0 °F 81% 30.12 in 10.0 mi NNE 18.4 mph 25.3 mph N/A   Overcast
7:55 PM 32.5 °F 21.5 °F 27.3 °F 81% 30.13 in 10.0 mi NNE 17.3 mph - N/A   Overcast
8:15 PM 32.2 °F 20.0 °F 28.0 °F 85% 30.13 in 10.0 mi NE 20.7 mph 27.6 mph N/A   Overcast
8:35 PM 32.0 °F 20.1 °F 28.2 °F 86% 30.14 in 10.0 mi NE 19.6 mph 28.8 mph N/A   Overcast
8:55 PM 32.0 °F 20.1 °F 28.2 °F 86% 30.15 in 10.0 mi NE 19.6 mph - N/A   Overcast
9:15 PM 32.0 °F 20.5 °F 28.4 °F 87% 30.17 in 10.0 mi NNE 18.4 mph - N/A   Overcast
9:35 PM 32.0 °F 19.5 °F 29.3 °F 90% 30.17 in 10.0 mi NNE 21.9 mph 27.6 mph N/A Rain Light Rain
9:55 PM 31.5 °F 19.8 °F 29.8 °F 94% 30.19 in 3.0 mi NNE 18.4 mph 23.0 mph N/A Snow Light Snow
10:15 PM 31.1 °F 20.1 °F 29.8 °F 95% 30.19 in 2.0 mi NE 16.1 mph 21.9 mph N/A Snow Light Snow
10:35 PM 30.9 °F 18.7 °F 29.7 °F 95% 30.20 in 2.0 mi NNE 19.6 mph 24.2 mph N/A Snow Light Snow
10:55 PM 30.4 °F 18.7 °F 29.1 °F 95% 30.21 in 1.8 mi NNE 17.3 mph 23.0 mph N/A Snow Light Snow
11:15 PM 30.0 °F 17.5 °F 28.8 °F 95% 30.21 in 2.5 mi NNE 19.6 mph 25.3 mph N/A Snow Light Snow
11:35 PM 29.7 °F 17.4 °F 28.4 °F 95% 30.22 in 2.0 mi NNE 18.4 mph - N/A Snow Light Snow
11:55 PM 29.1 °F 16.4 °F 27.9 °F 95% 30.21 in 2.5 mi NNE 19.6 mph 25.3 mph N/A Snow Light Snow